[[{"header":{"parameterUnit":"m.s-1","parameterCategory":1,"la1":30.2991,"la2":30.254,"lo1":-89.0895,"lo2":-89.0444,"dy":0.0017,"dx":0.0017,"nx":28,"ny":28,"refTime":"2024-06-19T03:00:00:Z","depth":0,"parameterNumber":2,"parameterNumberName":"U-component_of_WINDS"},"data":[0,0,0,0,0,0,0,0,0,0,0,0,0,0,0,0,0,0,0,0,0,0,0,0,0,0,0,0,0,0,0,0,0,0,0,0,0,0,0,0,0,0,0,0,0,0,0,0,0,0,0,0,0,0,0,0,0,0,-6.6183,-6.6184,0,-6.6288,-6.629,-6.6291,-6.6092,-6.6086,-6.6079,-6.6073,-6.6189,-6.6198,-6.6207,0,0,0,0,0,0,0,0,0,0,0,0,0,-6.5815,-6.5822,-6.6182,-6.6184,-6.6185,-6.6288,-6.629,-6.6291,-6.6094,-6.6085,-6.6077,-6.607,-6.6186,-6.6197,-6.6208,0,0,0,0,0,0,0,0,0,0,0,0,0,-6.5953,-6.5825,-6.6182,-6.6099,-6.6092,-6.6288,-6.629,-6.6292,-6.6095,-6.6085,-6.6075,-6.6066,-6.6182,-6.6196,-6.6209,-6.6494,0,0,-6.6252,-6.6258,0,0,0,0,0,0,0,0,-6.5946,-6.5967,-6.611,-6.6105,-6.6098,-6.6167,-6.6202,-6.636,-6.6098,-6.6094,-6.6073,-6.6061,-6.619,-6.6203,-6.6245,-6.6499,-6.6504,-6.6253,-6.6262,-6.6267,-6.6271,0,0,0,0,0,0,0,-6.5936,-6.5961,-6.6224,-6.6112,-6.6105,-6.6058,-6.6067,-6.6231,-6.6197,-6.6094,-6.608,-6.6095,-6.6185,-6.6232,-6.6246,-6.6506,-6.6253,-6.6265,-6.6274,-6.6279,-6.6997,-6.7008,0,0,0,0,0,0,-6.5936,-6.5955,-6.6221,-6.6228,-6.5995,-6.6073,-6.6082,-6.6155,-6.6194,-6.6191,-6.6103,-6.6085,-6.6213,-6.623,-6.6249,-6.6583,-6.6267,-6.628,-6.6288,-6.6987,-6.7,-6.7011,0,0,0,0,0,0,-6.5929,-6.5962,-6.6217,-6.6087,-6.6116,-6.6089,-6.6173,-6.6162,-6.6208,-6.6201,-6.6195,-6.6157,-6.6206,-6.623,-6.6433,-6.6584,-6.6287,-6.6299,-6.6974,-6.6991,-6.7006,-6.7255,0,0,0,0,0,0,-6.5919,-6.596,-6.6067,-6.6091,-6.6124,-6.6398,-6.6182,-6.6171,-6.6232,-6.621,-6.625,-6.6247,-6.62,-6.6414,-6.6447,-6.6598,-6.631,-6.696,-6.6981,-6.7,-6.7233,-6.7277,-6.7315,0,0,0,0,0,-6.5907,-6.6135,-6.6073,-6.6107,-6.6256,-6.6407,-6.6426,-6.6365,-6.6245,-6.6352,-6.6348,-6.6246,-6.6563,-6.6436,-6.6472,-6.663,-6.6951,-6.6976,-6.6999,-6.7214,-6.7268,-6.7314,0,0,0,0,0,0,-6.6132,-6.6136,-6.6068,-6.631,-6.636,-6.6373,-6.6507,-6.6425,-6.6511,-6.6487,-6.641,-6.6421,-6.664,-6.6655,-6.6514,-6.6906,-6.6737,-6.6769,-6.6888,-6.6939,-6.698,-6.6971,-6.6322,0,0,0,0,0,-6.6209,-6.633,-6.6328,-6.6542,-6.657,-6.6535,-6.6599,-6.6547,-6.6596,-6.6617,-6.6626,-6.668,-6.6791,-6.6866,-6.6968,-6.7234,-6.724,-6.736,-6.7401,-6.7435,-6.7464,-6.7605,-6.7658,-6.7091,-6.7091,-6.709,0,0,-6.6371,-6.6388,-6.647,-6.6588,-6.6619,-6.6747,-6.6554,-6.6698,-6.6792,-6.6639,-6.6831,-6.6841,-6.6895,-6.7131,-6.7235,-6.715,-6.7622,-6.7466,-6.7493,-6.7504,-6.7635,-6.7689,-6.7737,-6.7107,-6.7104,-6.7102,0,0,-6.6731,-6.6756,-6.6936,-6.6972,-6.7022,-6.6997,-6.704,-6.7067,-6.7066,-6.7257,-6.7144,-6.7257,-6.745,-6.7493,-6.7541,-6.7916,-6.7825,-6.7952,-6.8167,-6.8305,-6.835,-6.8389,-6.8522,-6.8571,-6.7981,-6.7981,-6.7982,0,-6.6926,-6.7112,-6.704,-6.7191,-6.7246,-6.7111,-6.7293,-6.7332,-6.7414,-6.7456,-6.7359,-6.7598,-6.7626,-6.7869,-6.796,-6.8003,-6.8051,-6.7946,-6.8349,-6.8388,-6.8423,-6.8549,-6.86,-6.7996,-6.7995,-6.7993,-6.7992,0,-6.7349,-6.7481,-6.762,-6.7699,-6.7771,-6.7937,-6.7892,-6.7973,-6.7915,-6.7901,-6.8098,-6.8125,-6.823,-6.8284,-6.8231,-6.852,-6.8466,-6.8361,-6.8189,-6.8493,-6.861,-6.8658,-6.8018,-6.8012,-6.8008,-6.8004,0,0,-6.7854,-6.789,-6.7942,-6.7976,-6.8021,-6.8122,-6.8283,-6.8382,-6.8453,-6.8515,-6.8648,-6.8814,-6.8716,-6.877,-6.8721,-6.8842,-6.9136,-6.8721,-6.8721,-6.8797,-6.9456,-6.9534,-6.9591,-6.9077,-6.9086,-6.9093,-6.9451,0,-6.8209,-6.8482,-6.8422,-6.8692,-6.8812,-6.8685,-6.8825,-6.8869,-6.886,-6.8962,-6.8953,-6.9072,-6.8934,-6.8966,-6.908,-6.9076,-6.9268,-6.905,-6.9201,-6.9207,-6.919,-6.9653,-6.9736,-7.0073,-6.9497,-6.9505,-6.951,0,-6.8661,-6.8736,-6.9017,-6.9041,-6.9089,-6.9216,-6.9301,-6.94,-6.9448,-6.9433,-6.9493,-6.942,-6.958,-6.9407,-6.9628,-6.9481,-6.9539,-6.9547,-6.9559,-6.957,-6.9376,-6.9675,-7.0179,-7.0229,-6.9582,-6.9576,-6.9571,0,-6.8999,-6.9171,-6.936,-6.9394,-6.9427,-6.9519,-6.9538,-6.9575,-6.9638,-6.9715,-6.9755,-6.9851,-6.9903,-6.9979,-6.9934,-6.9812,-7.0163,-6.9986,-7.0156,-7.0157,-7.0235,-7.023,-7.0754,-7.0275,-7.0274,-7.0273,-7.0272,0,-6.9401,-6.9578,-6.9512,-6.9629,-6.9824,-6.9753,-6.9949,-6.9953,-6.9987,-7.0104,-7.0001,-7.0113,-7.0047,-7.0155,-7.0121,-7.0309,-7.0334,-7.0327,-7.0316,-7.0336,-7.0337,-7.0372,-7.0347,-7.0287,-7.0284,-7.0281,-7.0279,0,-6.9811,-6.9774,-6.9972,-6.9987,-6.9995,-7.0138,-7.0151,-7.026,-7.0243,-7.0392,-7.0424,-7.0399,-7.052,-7.0482,-7.0614,-7.0591,-7.0829,-7.0788,-7.0812,-7.0801,-7.0973,-7.0957,-7.1537,-7.1609,-7.1085,-7.109,-7.1094,0,-7.007,-7.0202,-7.023,-7.0299,-7.0324,-7.0438,-7.0501,-7.0438,-7.0509,-7.0572,-7.0675,-7.0786,-7.0871,-7.1072,-7.1067,-7.1167,-7.1127,-7.1324,-7.1142,-7.1157,-7.1129,-7.1121,-7.1133,-7.136,-7.1366,-7.1371,-7.1375,0,-7.0532,-7.0507,-7.06,-7.0689,-7.0767,-7.0834,-7.0892,-7.0955,-7.0895,-7.0981,-7.1101,-7.1168,-7.1301,-7.1413,-7.1504,-7.1525,-7.1442,-7.1432,-7.1476,-7.1497,-7.1505,-7.1502,-7.0909,-7.1419,-7.1414,-7.1411,-7.1409,-7.1407,-7.0873,-7.0984,-7.1021,-7.1129,-7.1165,-7.1221,-7.1324,-7.132,-7.1418,-7.1519,-7.1477,-7.1617,-7.1661,-7.1773,-7.1807,-7.1916,-7.1841,-7.1906,-7.1922,-7.1939,-7.196,-7.1488,-7.1933,-7.1932,-7.193,-7.1929,-7.1928,0,-7.1329,-7.1345,-7.1445,-7.1528,-7.1614,-7.1525,-7.1584,-7.1662,-7.1785,-7.1832,-7.1918,-7.2057,-7.2165,-7.2169,-7.227,-7.2357,-7.2321,-7.2386,-7.2378,-7.2384,-7.2022,-7.1972,-7.2413,-7.2413,-7.2413,-7.2413,-7.2413,-7.2413,-7.1576,-7.1758,-7.1738,-7.1938,-7.1954,-7.2087,-7.2129,-7.2181,-7.2218,-7.2377,-7.2465,-7.2465,-7.2496,-7.2598,-7.2694,-7.2692,-7.2734,-7.2813,-7.2798,-7.2458,-7.241,-7.2364,-7.2317,-7.2823,-7.2824,-7.3151,-7.3154,-7.3156]},{"header":{"parameterUnit":"m.s-1","parameterCategory":1,"la1":30.2991,"la2":30.254,"lo1":-89.0895,"lo2":-89.0444,"dy":0.0017,"dx":0.0017,"nx":28,"ny":28,"refTime":"2024-06-19T03:00:00:Z","depth":0,"parameterNumber":3,"parameterNumberName":"V-component_of_WINDS"},"data":[0,0,0,0,0,0,0,0,0,0,0,0,0,0,0,0,0,0,0,0,0,0,0,0,0,0,0,0,0,0,0,0,0,0,0,0,0,0,0,0,0,0,0,0,0,0,0,0,0,0,0,0,0,0,0,0,0,0,-0.8112,-0.8111,0,-0.8073,-0.8072,-0.8072,-0.8129,-0.8131,-0.8133,-0.8135,-0.8084,-0.8081,-0.8078,0,0,0,0,0,0,0,0,0,0,0,0,0,-0.8225,-0.8223,-0.8112,-0.8111,-0.8111,-0.8073,-0.8072,-0.8072,-0.8128,-0.8131,-0.8133,-0.8136,-0.8085,-0.8081,-0.8078,0,0,0,0,0,0,0,0,0,0,0,0,0,-0.818,-0.8222,-0.8112,-0.8135,-0.8137,-0.8073,-0.8072,-0.8071,-0.8128,-0.8131,-0.8134,-0.8137,-0.8086,-0.8082,-0.8077,-0.7986,0,0,-0.8062,-0.806,0,0,0,0,0,0,0,0,-0.8182,-0.8176,-0.8132,-0.8133,-0.8135,-0.8109,-0.8094,-0.8042,-0.8127,-0.8131,-0.8135,-0.8138,-0.8089,-0.8084,-0.807,-0.7983,-0.7981,-0.8062,-0.8059,-0.8057,-0.8055,0,0,0,0,0,0,0,-0.8185,-0.8178,-0.8096,-0.8131,-0.8133,-0.8144,-0.8141,-0.8084,-0.8093,-0.8131,-0.8135,-0.813,-0.8091,-0.8074,-0.8069,-0.7981,-0.8062,-0.8057,-0.8054,-0.8053,-0.7813,-0.781,0,0,0,0,0,0,-0.8187,-0.818,-0.8097,-0.8095,-0.8167,-0.8139,-0.8136,-0.8114,-0.8094,-0.8094,-0.8127,-0.8133,-0.8081,-0.8075,-0.8068,-0.7957,-0.8057,-0.8052,-0.8049,-0.7817,-0.7813,-0.7809,0,0,0,0,0,0,-0.819,-0.8179,-0.8099,-0.8139,-0.8129,-0.8134,-0.8109,-0.8112,-0.8096,-0.8092,-0.8092,-0.811,-0.8083,-0.8074,-0.8006,-0.7956,-0.805,-0.8045,-0.7821,-0.7815,-0.7811,-0.7736,0,0,0,0,0,0,-0.8193,-0.818,-0.8148,-0.8138,-0.8127,-0.8041,-0.8106,-0.8109,-0.8088,-0.8095,-0.8075,-0.8075,-0.8085,-0.8013,-0.8001,-0.7951,-0.8042,-0.7825,-0.7818,-0.7812,-0.7743,-0.7729,-0.7717,0,0,0,0,0,-0.8197,-0.8127,-0.8146,-0.8136,-0.8087,-0.8038,-0.8031,-0.8047,-0.8084,-0.805,-0.8047,-0.8076,-0.7964,-0.8005,-0.7992,-0.794,-0.7828,-0.782,-0.7813,-0.7749,-0.7732,-0.7717,0,0,0,0,0,0,-0.8128,-0.8126,-0.8147,-0.8073,-0.8055,-0.8048,-0.8005,-0.8029,-0.7998,-0.8005,-0.8024,-0.8019,-0.7945,-0.7936,-0.7982,-0.7849,-0.7902,-0.7891,-0.7857,-0.7841,-0.7828,-0.783,-0.8038,0,0,0,0,0,-0.8105,-0.8068,-0.8067,-0.8001,-0.7992,-0.8,-0.7979,-0.7993,-0.7974,-0.7966,-0.7958,-0.7936,-0.7895,-0.7868,-0.7831,-0.7743,-0.7737,-0.77,-0.7687,-0.7677,-0.7666,-0.7615,-0.7598,-0.7784,-0.7784,-0.7784,0,0,-0.8055,-0.8049,-0.8024,-0.7987,-0.7975,-0.7933,-0.7993,-0.7946,-0.7914,-0.7958,-0.7892,-0.7886,-0.7862,-0.7782,-0.7746,-0.7772,-0.7614,-0.7667,-0.7659,-0.7654,-0.7605,-0.7588,-0.7572,-0.7778,-0.7779,-0.778,0,0,-0.7942,-0.7936,-0.7879,-0.7867,-0.7849,-0.7855,-0.7842,-0.783,-0.7828,-0.7764,-0.7795,-0.7755,-0.7687,-0.7668,-0.7649,-0.7528,-0.7552,-0.7516,-0.7446,-0.7396,-0.7382,-0.7369,-0.7322,-0.7305,-0.7506,-0.7506,-0.7505,0,-0.7881,-0.7822,-0.7846,-0.7797,-0.7778,-0.782,-0.776,-0.7746,-0.7715,-0.7699,-0.773,-0.7644,-0.7631,-0.7545,-0.7516,-0.7501,-0.7482,-0.7516,-0.7383,-0.737,-0.7358,-0.7313,-0.7296,-0.7501,-0.7502,-0.7502,-0.7502,0,-0.7747,-0.7705,-0.7661,-0.7634,-0.761,-0.7555,-0.7567,-0.754,-0.7556,-0.7558,-0.7489,-0.7476,-0.7435,-0.7417,-0.7431,-0.7332,-0.7348,-0.7381,-0.7433,-0.7335,-0.7293,-0.7277,-0.7495,-0.7496,-0.7498,-0.7499,0,0,-0.7587,-0.7575,-0.7558,-0.7545,-0.7529,-0.7495,-0.7441,-0.7405,-0.7379,-0.7357,-0.7309,-0.725,-0.728,-0.7258,-0.7271,-0.7227,-0.7128,-0.7264,-0.7264,-0.7236,-0.7013,-0.6987,-0.6967,-0.7145,-0.7142,-0.714,-0.7014,0,-0.7472,-0.7383,-0.7402,-0.7313,-0.7272,-0.7311,-0.7264,-0.7246,-0.7246,-0.7209,-0.7207,-0.7164,-0.7208,-0.7195,-0.7154,-0.7149,-0.7083,-0.7159,-0.7096,-0.7094,-0.7097,-0.6946,-0.6918,-0.68,-0.6998,-0.6996,-0.6994,0,-0.7326,-0.7301,-0.7208,-0.7197,-0.718,-0.7138,-0.7105,-0.707,-0.705,-0.7053,-0.7029,-0.7049,-0.6991,-0.7048,-0.6966,-0.7017,-0.6992,-0.6986,-0.6981,-0.6973,-0.7035,-0.6929,-0.6763,-0.6744,-0.6969,-0.6971,-0.6973,0,-0.7214,-0.7157,-0.7094,-0.7082,-0.7068,-0.7036,-0.7029,-0.7012,-0.6988,-0.6959,-0.6942,-0.6905,-0.6884,-0.6853,-0.6861,-0.6902,-0.6775,-0.6833,-0.6772,-0.6771,-0.674,-0.6741,-0.6564,-0.6731,-0.6731,-0.6731,-0.6732,0,-0.7081,-0.7022,-0.7043,-0.7003,-0.6936,-0.6959,-0.6891,-0.6887,-0.6872,-0.6829,-0.686,-0.6818,-0.6834,-0.6792,-0.6798,-0.6727,-0.6718,-0.6715,-0.6716,-0.671,-0.6709,-0.6691,-0.6698,-0.6727,-0.6728,-0.6729,-0.6729,0,-0.6944,-0.6957,-0.6889,-0.6883,-0.6879,-0.683,-0.6822,-0.6783,-0.6786,-0.6731,-0.6719,-0.6722,-0.6675,-0.6681,-0.6627,-0.6631,-0.6541,-0.6554,-0.6548,-0.655,-0.6486,-0.6491,-0.6288,-0.626,-0.6449,-0.6447,-0.6446,0,-0.6857,-0.6812,-0.6801,-0.6777,-0.6767,-0.6727,-0.6704,-0.6723,-0.6696,-0.667,-0.6632,-0.6589,-0.6554,-0.6475,-0.6469,-0.6427,-0.6437,-0.6369,-0.643,-0.6425,-0.6431,-0.6432,-0.6426,-0.6355,-0.6353,-0.6351,-0.635,0,-0.6699,-0.6707,-0.6675,-0.6643,-0.6615,-0.659,-0.6568,-0.6545,-0.6562,-0.653,-0.6483,-0.6457,-0.6403,-0.6356,-0.6317,-0.6304,-0.6327,-0.6331,-0.6314,-0.6305,-0.6302,-0.6299,-0.6511,-0.6335,-0.6336,-0.6337,-0.6338,-0.6339,-0.6581,-0.6542,-0.6529,-0.649,-0.6476,-0.6455,-0.6417,-0.6416,-0.6379,-0.6339,-0.6352,-0.6297,-0.6275,-0.6225,-0.6209,-0.6164,-0.6188,-0.6164,-0.6157,-0.615,-0.6141,-0.6313,-0.6157,-0.6157,-0.6158,-0.6158,-0.6158,0,-0.6421,-0.6415,-0.638,-0.6349,-0.6318,-0.6348,-0.6325,-0.6295,-0.6248,-0.6228,-0.6194,-0.6138,-0.6094,-0.6086,-0.6042,-0.6007,-0.6016,-0.5994,-0.5995,-0.5991,-0.6123,-0.6141,-0.5987,-0.5987,-0.5987,-0.5988,-0.5988,-0.5988,-0.6335,-0.627,-0.6276,-0.6204,-0.6197,-0.6147,-0.613,-0.6109,-0.6093,-0.603,-0.5995,-0.5992,-0.5974,-0.593,-0.5889,-0.5887,-0.5867,-0.584,-0.5842,-0.5965,-0.5982,-0.5998,-0.6014,-0.5837,-0.5837,-0.5713,-0.5712,-0.5711]}]]